Terminal Aerodrome Forecast
Issued by NWS Austin/San Antonio, TX

Home | Current Version | Previous Version | Text Only | Print | Product List | Glossary On
Versions: 1 2 3 4 5 6 7 8 9 10 11 12 13 14 15 16 17 18 19
000
FTUS44 KEWX 170500
TAFDRT
TAF
KDRT 170520Z 1706/1806 10006KT P6SM BKN050 BKN120
     FM170900 09005KT P6SM BKN015 BKN030
      TEMPO 1711/1715 5SM SHRA
     FM171600 13010KT P6SM SCT030 BKN050
     FM180300 13008KT P6SM BKN028 BKN050=

USA.gov is the U.S. government's official web portal to all federal, state and local government web resources and services.